Wetterstats.de || Aktuelle Messwerte / Archiv || Klim. Kenntage || Met. Ereignisse || Agrarwerte

Monatsübersicht für Dezember 2019 Diagramm
 
Wetter Information zur Wetteranzeige
Zeitraffer
Tageslänge (hh:mm)
Höchsttemperatur in °C
Uhrzeit
Tiefsttemperatur in °C
Uhrzeit
Luftfeuchte (max., in %)
Uhrzeit
Luftfeuchte (min., in %)
Uhrzeit
Luftdruck (max., in hPa)
Uhrzeit
Luftdruck (min., in hPa)
Uhrzeit
Luftdruck (Ø, in hPa)
Regenrate (max, mm/h)
Uhrzeit
Niederschlag in mm
Niederschlagsdauer (hh:mm)
Verdunstung in mm
Solar in W/m² (Ø)
Solar in W/m² (max.)
UV-Index (max.)
Sonnenscheindauer (hh:mm)
Windrichtung (Ø)
Windstärke (Ø in km/h)
Windstärke (Ø in bft)
Windböe (max., in km/h)
Uhrzeit
Windböe (max., in bft)
Uhrzeit
Taupunkt (max., in °C)
Uhrzeit
Taupunkt (min., in °C)
Uhrzeit
Windchill (min., in °C)
Uhrzeit
Gewitterindex (max.)
Uhrzeit
Waldbrandindex (max.)
Uhrzeit
Graslandfeuerindex (max.)
Uhrzeit
Staubsturm-Index (max.)
Uhrzeit
01
Zeitraffer
08:07
4.8
14:25 Uhr
2.2
04:50 Uhr

95
05:20 Uhr
87
14:15 Uhr
1022.2
00:00 Uhr

1018.8
23:50 Uhr
1020.8
0,000
00:00 Uhr
0,000
00:00:00
0.102
30
61
11:30 Uhr
0.0
00:00 Uhr

00:00:00
0,0
0
3,2
02:50 Uhr

1
3.0
11:30 Uhr
1.3
04:55 Uhr
2.2
04:50 Uhr
0
00:00 Uhr
0.0
00:00 Uhr
0.0
00:00 Uhr
0.0
00:00 Uhr
02
Zeitraffer
08:04
5.2
14:25 Uhr
2.2
00:25 Uhr

94
01:10 Uhr
87
14:10 Uhr
1022.4
23:20 Uhr

1017.1
06:30 Uhr
1018.5
2,400
16:25 Uhr
0,200
00:01:00
0.076
25
67
14:00 Uhr
0.0
00:00 Uhr

00:00:00
0,3
0
8,0
13:20 Uhr

2
3.5
16:45 Uhr
1.0
23:20 Uhr
2.2
00:25 Uhr
0
00:00 Uhr
0.0
00:00 Uhr
0.0
00:00 Uhr
0.0
00:00 Uhr
03
Zeitraffer
08:03
5.8
21:35 Uhr
-0.9
06:25 Uhr

96
09:00 Uhr
86
12:55 Uhr
1025.9
09:35 Uhr

1022.7
00:00 Uhr
1024.3
0,000
00:00 Uhr
0,000
00:00:00
0.178
58
213
11:50 Uhr
0.0
00:00 Uhr

01:27:00
0,1
0
6,4
23:30 Uhr

1
5.1
21:45 Uhr
-1.8
06:35 Uhr
-0.9
06:25 Uhr
0
00:00 Uhr
0.0
00:00 Uhr
0.0
00:00 Uhr
0.0
00:00 Uhr
04
Zeitraffer
08:00
7.1
13:45 Uhr
1.9
23:55 Uhr

92
00:00 Uhr
79
13:55 Uhr
1022.9
00:00 Uhr

1021.0
23:15 Uhr
1021.9
0,000
00:00 Uhr
0,000
00:00:00
0.127
39
151
12:00 Uhr
0.0
00:00 Uhr

00:23:00
0,1
0
6,4
03:00 Uhr

1
4.5
00:00 Uhr
0.4
23:15 Uhr
1.9
23:55 Uhr
0
00:00 Uhr
0.0
00:00 Uhr
0.0
00:00 Uhr
0.0
00:00 Uhr
05
Zeitraffer
07:59
4.7
11:35 Uhr
0.3
06:45 Uhr

90
00:00 Uhr
74
11:10 Uhr
1020.9
00:00 Uhr

1014.7
23:50 Uhr
1018.0
0,000
00:00 Uhr
0,000
00:00:00
0.178
70
190
11:25 Uhr
0.0
00:00 Uhr

02:31:00
0,4
0
9,7
10:15 Uhr

2
0.9
14:10 Uhr
-1.3
06:45 Uhr
0.3
06:45 Uhr
0
00:00 Uhr
0.0
00:00 Uhr
0.0
00:00 Uhr
0.0
00:00 Uhr
06
Zeitraffer
07:57
5.1
23:50 Uhr
0.3
02:15 Uhr

95
22:35 Uhr
75
08:50 Uhr
1014.7
00:00 Uhr

1003.0
23:55 Uhr
1008.8
2,400
12:45 Uhr
2,600
00:13:00
0.076
21
50
10:25 Uhr
0.0
00:00 Uhr

00:08:00
1,3
0
11,3
12:25 Uhr

2
4.3
23:35 Uhr
-2.1
06:10 Uhr
0.3
02:15 Uhr
0
00:00 Uhr
0.0
00:00 Uhr
0.0
00:00 Uhr
0.0
00:00 Uhr
07
Zeitraffer
07:56
9.7
14:05 Uhr
5.1
00:00 Uhr

95
00:00 Uhr
84
14:00 Uhr
1009.9
23:31 Uhr

1000.5
05:00 Uhr
1005.0
2,400
03:00 Uhr
1,800
00:09:00
0.076
22
46
11:55 Uhr
0.0
00:00 Uhr

00:00:00
0,8
0
8,0
00:00 Uhr

2
7.4
10:10 Uhr
4.3
00:00 Uhr
5.1
00:00 Uhr
0
00:00 Uhr
0.0
00:00 Uhr
0.0
00:00 Uhr
0.0
00:00 Uhr
08
Zeitraffer
07:54
10.7
17:25 Uhr
7.7
02:50 Uhr

93
18:45 Uhr
75
10:55 Uhr
1009.9
00:00 Uhr

995.9
18:50 Uhr
1001.2
2,400
13:35 Uhr
1,200
00:06:00
0.279
35
105
11:00 Uhr
0.0
00:00 Uhr

00:00:00
1,2
0
16,1
12:35 Uhr

3
8.4
18:45 Uhr
4.3
04:45 Uhr
7.7
02:50 Uhr
0
00:00 Uhr
0.0
00:00 Uhr
0.0
00:00 Uhr
0.0
00:00 Uhr
09
Zeitraffer
07:52
9.7
12:55 Uhr
5.4
23:50 Uhr

92
20:05 Uhr
69
13:05 Uhr
1007.1
23:45 Uhr

995.9
01:30 Uhr
998.4
2,400
18:15 Uhr
1,000
00:05:00
0.508
65
228
10:55 Uhr
0.0
00:00 Uhr

01:41:00
0,9
0
14,5
11:15 Uhr

3
5.9
18:50 Uhr
2.9
06:35 Uhr
5.4
23:50 Uhr
0
00:00 Uhr
0.0
00:00 Uhr
0.0
00:00 Uhr
0.0
00:00 Uhr
10
Zeitraffer
07:51
6.4
11:35 Uhr
1.9
23:40 Uhr

90
06:55 Uhr
77
11:35 Uhr
1022.4
16:15 Uhr

1007.4
00:00 Uhr
1018.4
0,000
08:20 Uhr
0,000
0.178
69
183
11:20 Uhr
0.0
00:00 Uhr

02:54:00
0,7
0
12,9
23:35 Uhr

2
3.7
00:00 Uhr
-0.2
23:50 Uhr
0.9
23:45 Uhr
0
00:00 Uhr
0.0
00:00 Uhr
0.0
00:00 Uhr
0.0
00:00 Uhr
11
Zeitraffer
07:50
4.7
13:25 Uhr
1.6
02:00 Uhr

86
00:00 Uhr
64
15:00 Uhr
1018.6
00:15 Uhr

1003.7
23:55 Uhr
1010.4
0,000
00:00 Uhr
0,000
00:00:00
0.483
21
35
12:50 Uhr
0.0
00:00 Uhr

00:12:00
2,7
1
19,3
04:10 Uhr

3
-0.3
00:00 Uhr
-2.2
22:45 Uhr
-0.3
04:30 Uhr
0
00:00 Uhr
0.0
00:00 Uhr
0.0
00:00 Uhr
0.0
00:00 Uhr
12
Zeitraffer
07:49
4.4
15:10 Uhr
1.9
05:50 Uhr

95
09:20 Uhr
69
00:00 Uhr
1003.8
00:00 Uhr

995.5
23:55 Uhr
1000.9
2,400
03:00 Uhr
0,800
00:04:00
0.051
23
56
11:15 Uhr
0.0
00:00 Uhr

00:00:00
0,9
0
16,1
22:40 Uhr

3
3.0
12:15 Uhr
-2.0
00:00 Uhr
0.6
23:30 Uhr
0
00:00 Uhr
0.0
00:00 Uhr
0.0
00:00 Uhr
0.0
00:00 Uhr
13
Zeitraffer
07:48
2.6
20:15 Uhr
-0.1
04:55 Uhr

93
04:50 Uhr
84
10:35 Uhr
995.5
00:00 Uhr

981.6
13:40 Uhr
985.5
0,000
00:00 Uhr
0,000
00:00:00
0.203
65
171
11:45 Uhr
0.0
00:00 Uhr

01:24:00
3,9
1
25,7
09:10 Uhr

4
0.6
21:50 Uhr
-1.2
09:00 Uhr
-4.5
08:15 Uhr
0
00:00 Uhr
0.0
00:00 Uhr
0.0
00:00 Uhr
0.0
00:00 Uhr
14
Zeitraffer
07:47
5.3
23:15 Uhr
2.4
00:00 Uhr

95
07:00 Uhr
86
20:40 Uhr
996.2
23:50 Uhr

983.1
00:00 Uhr
987.5
2,400
04:55 Uhr
2,600
00:13:00
0.051
20
67
09:20 Uhr
0.0
00:00 Uhr

00:05:00
0,9
0
17,7
09:25 Uhr

3
3.8
16:20 Uhr
0.6
00:05 Uhr
2.4
00:00 Uhr
0
00:00 Uhr
0.0
00:00 Uhr
0.0
00:00 Uhr
0.0
00:00 Uhr
15
Zeitraffer
07:46
9.0
14:25 Uhr
3.1
05:15 Uhr

95
11:30 Uhr
68
18:25 Uhr
1007.3
23:55 Uhr

995.3
09:40 Uhr
999.6
2,400
08:25 Uhr
1,400
00:07:00
0.254
25
185
12:25 Uhr
0.0
00:00 Uhr

00:06:00
1,7
0
25,7
09:35 Uhr

4
7.2
12:40 Uhr
0.8
05:15 Uhr
1.9
09:25 Uhr
0
00:00 Uhr
0.0
00:00 Uhr
0.0
00:00 Uhr
0.0
00:00 Uhr


 
Wetter Information zur Wetteranzeige
Zeitraffer
Tageslänge (hh:mm)
Höchsttemperatur in °C
Uhrzeit
Tiefsttemperatur in °C
Uhrzeit
Luftfeuchte (max., in %)
Uhrzeit
Luftfeuchte (min., in %)
Uhrzeit
Luftdruck (max., in hPa)
Uhrzeit
Luftdruck (min., in hPa)
Uhrzeit
Luftdruck (Ø, in hPa)
Regenrate (max, mm/h)
Uhrzeit
Niederschlag in mm
Niederschlagsdauer (hh:mm)
Verdunstung in mm
Solar in W/m² (Ø)
Solar in W/m² (max.)
UV-Index (max.)
Sonnenscheindauer (hh:mm)
Windrichtung (Ø)
Windstärke (Ø in km/h)
Windstärke (Ø in bft)
Windböe (max., in km/h)
Uhrzeit
Windböe (max., in bft)
Uhrzeit
Taupunkt (max., in °C)
Uhrzeit
Taupunkt (min., in °C)
Uhrzeit
Windchill (min., in °C)
Uhrzeit
Gewitterindex (max.)
Uhrzeit
Waldbrandindex (max.)
Uhrzeit
Graslandfeuerindex (max.)
Uhrzeit
Staubsturm-Index (max.)
Uhrzeit
16
Zeitraffer
07:45
8.6
17:55 Uhr
5.2
03:45 Uhr

91
21:25 Uhr
78
00:00 Uhr
1009.5
07:35 Uhr

1006.0
23:10 Uhr
1008.0
0,000
00:00 Uhr
0,000
00:00:00
0.152
25
69
11:05 Uhr
0.0
00:00 Uhr

00:00:00
0,7
0
14,5
09:35 Uhr

3
7.1
18:35 Uhr
2.2
03:45 Uhr
5.2
03:45 Uhr
0
00:00 Uhr
0.0
00:00 Uhr
0.0
00:00 Uhr
0.0
00:00 Uhr
17
Zeitraffer
07:45
11.6
14:55 Uhr
5.0
04:50 Uhr

92
03:10 Uhr
71
14:35 Uhr
1006.4
21:00 Uhr

1003.7
06:45 Uhr
1005.1
0,000
00:00 Uhr
0,000
00:00:00
0.330
31
90
10:05 Uhr
0.0
00:00 Uhr

00:00:00
1,5
0
14,5
06:40 Uhr

3
6.9
18:45 Uhr
3.7
05:30 Uhr
5.0
04:50 Uhr
0
00:00 Uhr
0.0
00:00 Uhr
0.0
00:00 Uhr
0.0
00:00 Uhr
18
Zeitraffer
07:44
11.8
03:20 Uhr
3.7
23:50 Uhr

89
23:25 Uhr
66
03:15 Uhr
1020.8
23:05 Uhr

1004.9
01:15 Uhr
1014.1
0,000
00:00 Uhr
0,000
00:00:00
0.406
41
153
10:30 Uhr
0.0
00:00 Uhr

00:05:00
0,6
0
12,9
00:35 Uhr

2
7.9
06:35 Uhr
2.0
23:55 Uhr
3.7
23:50 Uhr
0
00:00 Uhr
0.0
00:00 Uhr
0.0
00:00 Uhr
0.0
00:00 Uhr
19
Zeitraffer
07:44
8.0
14:15 Uhr
1.8
02:25 Uhr

97
07:45 Uhr
89
00:00 Uhr
1020.6
00:00 Uhr

1006.6
23:55 Uhr
1015.4
0,000
00:00 Uhr
0,000
00:00:00
0.152
54
148
12:15 Uhr
0.0
00:00 Uhr

00:31:00
2,6
1
17,7
23:10 Uhr

3
6.3
14:15 Uhr
0.8
02:25 Uhr
0.9
03:40 Uhr
0
00:00 Uhr
0.0
00:00 Uhr
0.0
00:00 Uhr
0.0
00:00 Uhr
20
Zeitraffer
07:44
10.0
14:25 Uhr
4.4
06:45 Uhr

96
00:00 Uhr
83
13:00 Uhr
1006.6
00:00 Uhr

989.7
22:10 Uhr
996.2
2,400
23:35 Uhr
0,600
00:03:00
0.254
62
165
11:30 Uhr
0.0
00:00 Uhr

01:50:00
2,1
1
20,9
14:15 Uhr

4
7.5
14:55 Uhr
3.7
06:45 Uhr
4.4
06:45 Uhr
0
00:00 Uhr
0.0
00:00 Uhr
0.0
00:00 Uhr
0.0
00:00 Uhr
21
Zeitraffer
07:44
10.2
11:45 Uhr
3.8
23:45 Uhr

96
05:55 Uhr
79
14:00 Uhr
994.1
11:55 Uhr

990.0
00:30 Uhr
992.1
4,800
00:05 Uhr
2,200
00:11:00
0.203
56
205
10:55 Uhr
0.0
00:00 Uhr

01:20:00
0,2
0
9,7
15:55 Uhr

2
7.7
05:55 Uhr
2.6
23:50 Uhr
3.8
23:45 Uhr
0
00:00 Uhr
0.0
00:00 Uhr
0.0
00:00 Uhr
0.0
00:00 Uhr
22
Zeitraffer
07:43
5.2
23:25 Uhr
1.6
05:40 Uhr

97
08:15 Uhr
92
00:00 Uhr
990.5
23:40 Uhr

987.5
06:20 Uhr
989.0
0,000
00:00 Uhr
0,000
00:00:00
0.102
29
45
11:20 Uhr
0.0
00:00 Uhr

00:00:00
1,8
0
14,5
18:25 Uhr

3
4.4
23:05 Uhr
0.9
03:45 Uhr
1.6
05:40 Uhr
0
00:00 Uhr
0.0
00:00 Uhr
0.0
00:00 Uhr
0.0
00:00 Uhr
23
Zeitraffer
07:44
8.2
14:35 Uhr
5.2
00:00 Uhr

96
07:15 Uhr
84
19:25 Uhr
1009.4
23:50 Uhr

990.5
00:00 Uhr
999.9
2,400
04:30 Uhr
1,200
00:06:00
0.076
23
51
12:10 Uhr
0.0
00:00 Uhr

00:00:00
0,2
0
8,0
00:05 Uhr

2
6.9
12:15 Uhr
4.3
00:00 Uhr
5.2
00:00 Uhr
0
00:00 Uhr
0.0
00:00 Uhr
0.0
00:00 Uhr
0.0
00:00 Uhr
24
Zeitraffer
07:44
8.1
12:10 Uhr
5.2
21:50 Uhr

95
22:55 Uhr
77
13:10 Uhr
1011.6
07:30 Uhr

1004.4
22:40 Uhr
1008.4
2,400
01:05 Uhr
2,400
00:12:00
0.152
40
168
12:00 Uhr
0.0
00:00 Uhr

00:21:00
0,6
0
14,5
19:55 Uhr

3
5.4
02:55 Uhr
4.1
13:45 Uhr
5.2
21:50 Uhr
0
00:00 Uhr
0.0
00:00 Uhr
0.0
00:00 Uhr
0.0
00:00 Uhr
25
Zeitraffer
07:44
6.2
15:05 Uhr
4.9
07:25 Uhr

96
00:35 Uhr
93
15:00 Uhr
1019.8
23:35 Uhr

1004.7
00:10 Uhr
1012.4
2,400
00:25 Uhr
0,400
00:02:00
0.051
24
46
14:00 Uhr
0.0
00:00 Uhr

00:00:00
0,2
0
3,2
04:05 Uhr

1
5.2
00:45 Uhr
4.0
23:40 Uhr
4.9
07:25 Uhr
0
00:00 Uhr
0.0
00:00 Uhr
0.0
00:00 Uhr
0.0
00:00 Uhr
26
Zeitraffer
07:45
6.3
13:25 Uhr
4.3
00:55 Uhr

95
09:05 Uhr
88
14:40 Uhr
1022.2
23:05 Uhr

1019.7
00:05 Uhr
1021.3
2,400
01:55 Uhr
1,000
00:05:00
0.127
36
120
10:05 Uhr
0.0
00:00 Uhr

00:09:00
0,1
0
6,4
17:20 Uhr

1
4.8
13:25 Uhr
3.2
00:55 Uhr
4.3
00:55 Uhr
0
00:00 Uhr
0.0
00:00 Uhr
0.0
00:00 Uhr
0.0
00:00 Uhr
27
Zeitraffer
07:45
4.4
00:00 Uhr
1.2
22:05 Uhr

96
03:10 Uhr
87
10:35 Uhr
1036.1
23:55 Uhr

1022.1
00:00 Uhr
1028.0
2,400
00:15 Uhr
0,600
00:03:00
0.102
40
129
10:25 Uhr
0.0
00:00 Uhr

00:50:00
0,6
0
12,9
08:25 Uhr

2
3.7
00:00 Uhr
0.0
22:10 Uhr
1.2
22:05 Uhr
0
00:00 Uhr
0.0
00:00 Uhr
0.0
00:00 Uhr
0.0
00:00 Uhr
28
Zeitraffer
07:46
2.7
14:15 Uhr
-0.2
23:50 Uhr

93
00:20 Uhr
70
12:40 Uhr
1042.4
21:05 Uhr

1036.1
00:00 Uhr
1040.2
0,000
00:00 Uhr
0,000
00:00:00
0.102
40
92
11:35 Uhr
0.0
00:00 Uhr

00:00:00
0,3
0
11,3
12:00 Uhr

2
0.2
00:20 Uhr
-2.9
23:35 Uhr
-0.2
23:50 Uhr
0
00:00 Uhr
0.0
00:00 Uhr
0.0
00:00 Uhr
0.0
00:00 Uhr
29
Zeitraffer
07:47
2.9
11:45 Uhr
-2.2
04:10 Uhr

91
05:50 Uhr
65
11:50 Uhr
1041.2
00:10 Uhr

1033.2
23:05 Uhr
1037.6
0,000
00:00 Uhr
0,000
00:00:00
0.305
66
222
11:30 Uhr
0.0
00:00 Uhr

01:49:00
0,6
0
14,5
13:35 Uhr

3
-1.6
22:05 Uhr
-3.9
09:50 Uhr
-2.2
04:10 Uhr
0
00:00 Uhr
0.0
00:00 Uhr
0.0
00:00 Uhr
0.0
00:00 Uhr
30
Zeitraffer
07:47
7.9
14:20 Uhr
2.2
00:00 Uhr

75
00:00 Uhr
37
14:20 Uhr
1033.5
00:00 Uhr

1020.8
23:15 Uhr
1027.0
0,000
00:00 Uhr
0,000
00:00:00
0.508
33
78
12:20 Uhr
0.0
00:00 Uhr

00:00:00
0,5
0
8,0
00:40 Uhr

2
-1.7
00:15 Uhr
-7.2
23:55 Uhr
2.2
00:00 Uhr
0
00:00 Uhr
0.0
00:00 Uhr
0.0
00:00 Uhr
0.0
00:00 Uhr
31
Zeitraffer
07:48
7.7
14:50 Uhr
4.8
00:05 Uhr

89
09:05 Uhr
39
00:35 Uhr
1032.1
23:55 Uhr

1019.8
01:10 Uhr
1026.1
0,000
00:00 Uhr
0,000
00:00:00
0.406
35
173
11:20 Uhr
0.0
00:00 Uhr

00:15:00
0,7
0
8,0
04:50 Uhr

2
4.3
11:20 Uhr
-7.7
00:35 Uhr
4.8
00:05 Uhr
0
00:00 Uhr
0.0
00:00 Uhr
0.0
00:00 Uhr
0.0
00:00 Uhr
Stationsstandorte || Wetterblog || Wissenswertes || Downloads || Seiten-Historie || Partner || Impressum / Datenschutz